[[{"header":{"parameterUnit":"m.s-1","parameterCategory":1,"la1":30.2991,"la2":30.254,"lo1":-89.0895,"lo2":-89.0444,"dy":0.0017,"dx":0.0017,"nx":28,"ny":28,"refTime":"2024-08-01T03:00:00:Z","depth":0,"parameterNumber":2,"parameterNumberName":"U-component_of_WINDS"},"data":[0,0,0,0,0,0,0,0,0,0,0,0,0,0,0,0,0,0,0,0,0,0,0,0,0,0,0,0,0,0,0,0,0,0,0,0,0,0,0,0,0,0,0,0,0,0,0,0,0,0,0,0,0,0,0,0,0,0,1.971,1.9711,0,1.9798,1.9799,1.98,1.9798,1.9797,1.9795,1.9794,1.989,1.9894,1.9897,0,0,0,0,0,0,0,0,0,0,0,0,0,1.9548,1.9551,1.971,1.9711,1.9712,1.9797,1.9799,1.98,1.9798,1.9797,1.9795,1.9794,1.9889,1.9893,1.9897,0,0,0,0,0,0,0,0,0,0,0,0,0,1.9625,1.9552,1.971,1.9721,1.9723,1.9797,1.9799,1.98,1.9798,1.9797,1.9795,1.9793,1.9887,1.9893,1.9898,1.9968,0,0,1.9915,1.9917,0,0,0,0,0,0,0,0,1.9621,1.9631,1.9718,1.9721,1.9723,1.9785,1.9777,1.9857,1.9799,1.977,1.9794,1.9792,1.9857,1.9865,1.9885,1.9972,1.9977,1.9915,1.9919,1.9921,1.9923,0,0,0,0,0,0,0,1.9615,1.9627,1.9745,1.972,1.9722,1.9724,1.9733,1.9792,1.9823,1.9772,1.9772,1.9783,1.9858,1.988,1.9888,1.9978,1.9915,1.992,1.9923,1.9926,2.0131,2.0134,0,0,0,0,0,0,1.9607,1.9623,1.9742,1.9747,1.9666,1.9729,1.9739,1.9767,1.9822,1.9828,1.9784,1.9782,1.9871,1.9881,1.9891,1.998,1.9921,1.9926,1.9929,2.0129,2.0132,2.0134,0,0,0,0,0,0,1.9603,1.9617,1.9738,1.9685,1.9701,1.9733,1.9765,1.977,1.9792,1.9831,1.9837,1.9801,1.987,1.9883,1.9949,1.9983,1.9929,1.9934,2.0127,2.013,2.0133,2.0155,0,0,0,0,0,0,1.9599,1.9616,1.9641,1.9686,1.9704,1.9793,1.9767,1.9773,1.9801,1.9799,1.9848,1.9854,1.987,1.9941,1.9955,1.9989,1.9938,2.0124,2.0128,2.0132,2.0152,2.0159,2.0165,0,0,0,0,0,1.9593,1.9644,1.9642,1.9657,1.9735,1.9795,1.9806,1.9821,1.9803,1.983,1.9856,1.9853,1.9976,1.9948,1.9963,2.0,2.0122,2.0127,2.0132,2.0149,2.0157,2.0165,0,0,0,0,0,0,1.9604,1.965,1.9649,1.9716,1.9751,1.9795,1.9829,1.9829,1.9872,1.9869,1.9888,1.9899,1.9966,1.9989,1.9957,2.0073,2.0047,2.0056,2.0055,2.0064,2.007,2.0064,1.9942,0,0,0,0,0,1.9614,1.9657,1.9695,1.9751,1.9769,1.9796,1.9822,1.9831,1.987,1.9885,1.9915,1.9955,2.0003,2.0034,2.008,2.0154,2.0167,2.0188,2.0194,2.0199,2.0207,2.0252,2.0263,2.015,2.015,2.015,0,0,1.9636,1.9666,1.9692,1.9754,1.9783,1.983,1.9809,1.9858,1.9894,1.9893,1.9958,1.9982,2.0027,2.0099,2.0132,2.012,2.0241,2.0206,2.0209,2.0215,2.0258,2.0269,2.0278,2.0154,2.0153,2.0153,0,0,1.97,1.9725,1.9776,1.9805,1.9849,1.9867,1.9879,1.9923,1.9938,2.0003,2.0005,2.0049,2.013,2.0163,2.0191,2.0269,2.027,2.0284,2.032,2.0363,2.0372,2.038,2.0412,2.0422,2.0291,2.0291,2.0291,0,1.9722,1.979,1.9803,1.9853,1.9882,1.9882,1.9936,1.9964,2.0021,2.0042,2.0028,2.0132,2.0162,2.0243,2.0263,2.0284,2.0301,2.0279,2.0369,2.0377,2.0385,2.0416,2.0427,2.0293,2.0293,2.0292,2.0292,0,1.9817,1.9864,1.99,1.9955,1.9987,2.0039,2.0062,2.0094,2.01,2.0121,2.0189,2.0225,2.028,2.03,2.0306,2.0383,2.0375,2.0365,2.034,2.0397,2.0427,2.0438,2.0295,2.0294,2.0294,2.0294,0,0,1.989,1.9952,1.9965,1.9991,2.004,2.0079,2.0131,2.0184,2.0213,2.0252,2.03,2.0369,2.0361,2.0392,2.0403,2.0441,2.0505,2.0426,2.0428,2.0443,2.0596,2.0606,2.0619,2.0505,2.0507,2.0509,2.0594,0,1.9962,2.0054,2.0068,2.0151,2.0197,2.0199,2.0246,2.0283,2.0304,2.0348,2.0372,2.0422,2.0405,2.0424,2.0462,2.0489,2.0537,2.0483,2.0553,2.0555,2.0544,2.0634,2.0643,2.0722,2.0605,2.0607,2.0608,0,2.0057,2.0099,2.0186,2.0232,2.0252,2.0293,2.0344,2.0385,2.0428,2.0441,2.0477,2.0483,2.0542,2.0513,2.0596,2.0559,2.0588,2.0606,2.061,2.0619,2.0587,2.0649,2.0747,2.076,2.0625,2.0624,2.0623,0,2.0107,2.0185,2.0248,2.027,2.0323,2.0353,2.0377,2.0418,2.0449,2.0495,2.0516,2.0567,2.0597,2.0638,2.066,2.0636,2.0743,2.0714,2.0758,2.0758,2.0782,2.0781,2.089,2.0796,2.0796,2.0796,2.0795,0,2.0187,2.0241,2.0271,2.031,2.0372,2.0389,2.045,2.0474,2.0511,2.0557,2.0561,2.0605,2.0629,2.0678,2.0695,2.0763,2.0775,2.079,2.0795,2.0791,2.079,2.0813,2.0809,2.0799,2.0798,2.0797,2.0797,0,2.0253,2.0275,2.0345,2.039,2.0402,2.0446,2.0486,2.0526,2.0547,2.0605,2.062,2.0653,2.071,2.0735,2.0806,2.0818,2.0897,2.0896,2.0882,2.0885,2.0928,2.0925,2.1057,2.1077,2.0967,2.0968,2.0969,0,2.0304,2.0346,2.0396,2.0426,2.0451,2.05,2.0532,2.0551,2.0585,2.0638,2.0673,2.0729,2.0776,2.0868,2.09,2.0955,2.0957,2.1,2.0966,2.0962,2.0962,2.0961,2.0967,2.1007,2.1008,2.1009,2.101,0,2.0394,2.0403,2.0448,2.0499,2.0537,2.0578,2.0618,2.0644,2.0669,2.0708,2.0766,2.0802,2.0874,2.0932,2.0989,2.1016,2.1019,2.102,2.1034,2.1032,2.1024,2.1033,2.0903,2.1018,2.1017,2.1016,2.1016,2.1015,2.0457,2.0495,2.0537,2.0588,2.062,2.0658,2.0699,2.0725,2.0772,2.0832,2.084,2.0903,2.0948,2.1025,2.1055,2.1106,2.1096,2.1115,2.112,2.1125,2.113,2.1013,2.1116,2.1116,2.1116,2.1116,2.1116,0,2.0549,2.0576,2.0623,2.068,2.0721,2.0717,2.0762,2.0798,2.0853,2.0894,2.0939,2.1008,2.1064,2.1101,2.1159,2.1193,2.1196,2.1208,2.1208,2.1215,2.1134,2.1118,2.1205,2.1205,2.1205,2.1205,2.1205,2.1205,2.0603,2.0669,2.0683,2.0767,2.0794,2.0854,2.0881,2.0917,2.095,2.1026,2.1072,2.1095,2.1136,2.1197,2.125,2.1259,2.1282,2.1295,2.1305,2.1229,2.122,2.1211,2.1196,2.1299,2.1299,2.1382,2.1383,2.1384]},{"header":{"parameterUnit":"m.s-1","parameterCategory":1,"la1":30.2991,"la2":30.254,"lo1":-89.0895,"lo2":-89.0444,"dy":0.0017,"dx":0.0017,"nx":28,"ny":28,"refTime":"2024-08-01T03:00:00:Z","depth":0,"parameterNumber":3,"parameterNumberName":"V-component_of_WINDS"},"data":[0,0,0,0,0,0,0,0,0,0,0,0,0,0,0,0,0,0,0,0,0,0,0,0,0,0,0,0,0,0,0,0,0,0,0,0,0,0,0,0,0,0,0,0,0,0,0,0,0,0,0,0,0,0,0,0,0,0,1.1641,1.1642,0,1.1703,1.1704,1.1705,1.1702,1.1701,1.17,1.1699,1.1762,1.1765,1.1767,0,0,0,0,0,0,0,0,0,0,0,0,0,1.1516,1.1518,1.1641,1.1642,1.1642,1.1703,1.1704,1.1705,1.1702,1.1701,1.17,1.1699,1.1762,1.1765,1.1768,0,0,0,0,0,0,0,0,0,0,0,0,0,1.1573,1.1519,1.1641,1.1648,1.165,1.1703,1.1704,1.1705,1.1702,1.1701,1.17,1.1698,1.1761,1.1764,1.1768,1.1818,0,0,1.1779,1.1781,0,0,0,0,0,0,0,0,1.157,1.1578,1.1646,1.1648,1.1649,1.1693,1.1683,1.1743,1.1703,1.1682,1.1699,1.1698,1.174,1.1746,1.176,1.182,1.1823,1.178,1.1782,1.1784,1.1785,0,0,0,0,0,0,0,1.1566,1.1575,1.1665,1.1647,1.1649,1.1647,1.1654,1.1694,1.1718,1.1684,1.1684,1.1691,1.1741,1.1757,1.1762,1.1824,1.178,1.1783,1.1785,1.1787,1.1923,1.1924,0,0,0,0,0,0,1.1561,1.1572,1.1664,1.1667,1.1606,1.1651,1.1658,1.1681,1.1718,1.1722,1.1692,1.1691,1.1751,1.1757,1.1764,1.1821,1.1784,1.1787,1.1789,1.1922,1.1923,1.1925,0,0,0,0,0,0,1.1558,1.1569,1.1661,1.162,1.1631,1.1654,1.1679,1.1683,1.1698,1.1724,1.1728,1.1704,1.175,1.1759,1.1803,1.1824,1.1789,1.1792,1.192,1.1922,1.1924,1.1938,0,0,0,0,0,0,1.1555,1.1568,1.1588,1.162,1.1633,1.17,1.1681,1.1685,1.1705,1.1704,1.1736,1.174,1.175,1.1798,1.1807,1.1828,1.1795,1.1918,1.1921,1.1923,1.1936,1.194,1.1944,0,0,0,0,0,1.155,1.1591,1.159,1.1601,1.1659,1.1702,1.1709,1.1719,1.1707,1.1726,1.1742,1.1739,1.182,1.1802,1.1813,1.1835,1.1917,1.192,1.1923,1.1934,1.194,1.1944,0,0,0,0,0,0,1.1562,1.1595,1.1594,1.1647,1.1671,1.1701,1.1726,1.1726,1.1754,1.1752,1.1763,1.1771,1.1814,1.1829,1.1809,1.1883,1.1867,1.1872,1.1871,1.1877,1.1881,1.1876,1.1798,0,0,0,0,0,1.157,1.1603,1.163,1.1673,1.1685,1.1704,1.1723,1.1728,1.1754,1.1764,1.1784,1.1808,1.1838,1.1859,1.1889,1.1938,1.1943,1.1958,1.1962,1.1966,1.197,1.1993,1.1999,1.1935,1.1935,1.1935,0,0,1.1589,1.1611,1.1631,1.1676,1.1696,1.1727,1.1713,1.1748,1.177,1.177,1.1812,1.1827,1.1855,1.1901,1.1922,1.1915,1.1989,1.197,1.1972,1.1974,1.1997,1.2003,1.2008,1.1937,1.1936,1.1936,0,0,1.1638,1.1659,1.1695,1.1714,1.1744,1.1755,1.1763,1.1793,1.1802,1.1845,1.1843,1.187,1.1924,1.1942,1.1959,1.201,1.2007,1.2019,1.2041,1.2063,1.2068,1.2073,1.2088,1.2094,1.2024,1.2024,1.2024,0,1.1657,1.1705,1.1714,1.1748,1.1766,1.1766,1.1801,1.182,1.1858,1.1869,1.1861,1.1924,1.1944,1.1992,1.2004,1.2019,1.2027,1.2016,1.2067,1.2072,1.2076,1.2091,1.2097,1.2025,1.2025,1.2024,1.2024,0,1.1725,1.1758,1.1783,1.1818,1.1839,1.1874,1.1887,1.1908,1.191,1.1921,1.1962,1.1985,1.2017,1.2029,1.2033,1.2077,1.2071,1.2065,1.2048,1.2083,1.2097,1.2103,1.2026,1.2026,1.2025,1.2025,0,0,1.1785,1.1821,1.183,1.1844,1.1875,1.19,1.1933,1.1964,1.1979,1.2005,1.2031,1.2074,1.2067,1.2085,1.2091,1.2111,1.2145,1.2101,1.2102,1.2107,1.2192,1.2195,1.2202,1.2144,1.2145,1.2146,1.2188,0,1.1835,1.1894,1.1901,1.1953,1.1981,1.1979,1.2007,1.2028,1.2039,1.2063,1.2075,1.2104,1.2094,1.2104,1.2124,1.2137,1.2162,1.2134,1.2167,1.2168,1.2158,1.221,1.2214,1.2253,1.2194,1.2195,1.2196,0,1.1902,1.1926,1.198,1.2003,1.2015,1.204,1.2067,1.2092,1.2114,1.212,1.2138,1.214,1.2172,1.2154,1.2197,1.2177,1.2191,1.2199,1.22,1.2203,1.2183,1.2211,1.2266,1.2271,1.2205,1.2204,1.2204,0,1.1936,1.1983,1.202,1.2033,1.2061,1.2078,1.209,1.2111,1.2128,1.2151,1.2161,1.2189,1.2203,1.2223,1.2231,1.2218,1.2271,1.2256,1.2275,1.2275,1.2286,1.2285,1.2342,1.2298,1.2298,1.2298,1.2297,0,1.199,1.2023,1.2036,1.2059,1.2093,1.2101,1.2135,1.2147,1.2164,1.2188,1.2188,1.221,1.222,1.2243,1.225,1.2282,1.2289,1.2293,1.2294,1.2292,1.2291,1.2301,1.2297,1.2299,1.2299,1.2299,1.2298,0,1.2035,1.2045,1.2085,1.2107,1.2113,1.2138,1.2156,1.2177,1.2186,1.2216,1.2223,1.2237,1.2264,1.2274,1.2307,1.2311,1.2347,1.2347,1.234,1.2339,1.2358,1.2355,1.2421,1.2429,1.2381,1.2382,1.2382,0,1.2068,1.2092,1.2116,1.2131,1.2144,1.2169,1.2185,1.2193,1.2209,1.2234,1.2251,1.2277,1.2299,1.2341,1.2353,1.2377,1.2377,1.2398,1.238,1.2376,1.2374,1.2372,1.2373,1.2401,1.2402,1.2402,1.2402,0,1.2124,1.2127,1.2151,1.2175,1.2194,1.2214,1.2233,1.2245,1.2255,1.2273,1.2299,1.2316,1.2348,1.2373,1.2397,1.2408,1.2406,1.2408,1.2413,1.2411,1.2404,1.2405,1.2346,1.2406,1.2406,1.2405,1.2405,1.2405,1.2163,1.2183,1.2201,1.2226,1.2241,1.2257,1.2277,1.2287,1.231,1.2336,1.2338,1.2366,1.2384,1.2416,1.2428,1.2449,1.2443,1.2451,1.2453,1.2455,1.2455,1.2402,1.2453,1.2453,1.2453,1.2453,1.2453,0,1.2217,1.2228,1.2251,1.2276,1.2295,1.229,1.231,1.2326,1.235,1.2367,1.2387,1.2415,1.2439,1.2452,1.2475,1.2489,1.2488,1.2494,1.2493,1.2495,1.246,1.2452,1.2494,1.2494,1.2494,1.2494,1.2494,1.2494,1.2247,1.228,1.2284,1.2322,1.2333,1.236,1.2371,1.2385,1.2398,1.243,1.2449,1.2457,1.2472,1.2495,1.2515,1.2518,1.2526,1.2532,1.2534,1.2502,1.2498,1.2493,1.2486,1.2534,1.2534,1.2567,1.2567,1.2568]}]]